This demonstration page uses our WeatherBlox Daily Observations layout. Learn more.

Left ArrowRight Arrow

Hourly Observations for February 23, 2018

Temp ( °F °C ) Dew Point ( °F °C ) Humidity (%) Winds ( mph kmh ) Pressure ( in mb ) Visibility ( mi km ) Precip ( " mm )
12:16 am 00:16 Cloudy 29 -1.7 27 -2.8 92 92 WNW 6 9 30.30 1026 8 13 0.00 0.00
12:35 am 00:35 Cloudy 29 -1.7 26 -3.3 89 89 NW 6 9 30.27 1025 9 14 0.00 0.00
12:54 am 00:54 Cloudy 29 -1.7 26 -3.3 89 89 WNW 6 9 30.23 1024 8 13 0.00 0.00
1:54 am 01:54 Cloudy 29 -1.7 26 -3.3 89 89 W 6 9 30.24 1024 7 11 0.00 0.00
2:34 am 02:34 Cloudy 27 -2.8 25 -3.9 92 92 W 6 9 30.30 1026 7 11 0.00 0.00
2:54 am 02:54 Partly Cloudy 26 -3.3 24 -4.4 92 92 W 5 7 30.26 1025 7 11 0.00 0.00
3:05 am 03:05 Mostly Cloudy 27 -2.8 25 -3.9 92 92 W 6 9 30.30 1026 7 11 0.00 0.00
3:41 am 03:41 Cloudy 27 -2.8 25 -3.9 92 92 W 6 9 30.30 1026 8 13 0.00 0.00
3:54 am 03:54 Partly Cloudy 26 -3.3 24 -4.4 92 92 W 5 7 30.25 1025 8 13 0.00 0.00
4:54 am 04:54 Clear with Mist and Fog 24 -4.4 22 -5.6 91 91 W 6 9 30.26 1025 6 10 0.00 0.00
5:54 am 05:54 Clear 23 -5 20 -6.7 88 88 W 3 6 30.27 1025 7 11 0.00 0.00
6:54 am 06:54 Clear 21 -6.1 19 -7.2 92 92 WNW 5 7 30.29 1026 7 11 0.00 0.00
7:54 am 07:54 Sunny 22 -5.6 18 -7.8 85 85 NW 8 13 30.30 1026 7 11 0.00 0.00
8:54 am 08:54 Sunny 24 -4.4 19 -7.2 81 81 NNW 12 19 30.31 1026 7 11 0.00 0.00
9:54 am 09:54 Hazy 26 -3.3 21 -6.1 81 81 NNW 7 11 30.36 1028 6 10 0.00 0.00
10:54 am 10:54 Hazy 28 -2.2 22 -5.6 78 78 NW 3 6 30.38 1029 6 10 0.00 0.00
11:08 am 11:08 Mostly Cloudy 29 -1.7 23 -5 78 78 NNW 3 6 30.39 1029 7 11 0.00 0.00
11:54 am 11:54 Mostly Cloudy 30 -1.1 24 -4.4 79 79 NNW 6 9 30.39 1029 8 13 0.00 0.00
12:26 pm 12:26 Mostly Cloudy 31 -0.6 24 -4.4 76 76 NNW 6 9 30.39 1029 8 13 0.00 0.00
12:54 pm 12:54 Mostly Cloudy 31 -0.6 24 -4.4 76 76 N 5 7 30.37 1028 9 14 0.00 0.00
1:54 pm 13:54 Mostly Cloudy 32 0 26 -3.3 79 79 NNE 9 15 30.34 1027 10 16 0.00 0.00
2:38 pm 14:38 Partly Cloudy 34 1.1 26 -3.3 73 73 VRB 6 9 30.33 1027 10 16 0.00 0.00
2:45 pm 14:45 Mostly Cloudy 32 0 24 -4.4 73 73 NE 8 13 30.36 1028 10 16 0.00 0.00
2:54 pm 14:54 Partly Cloudy 33 0.6 24 -4.4 70 70 NE 5 7 30.34 1027 10 16 0.00 0.00
3:05 pm 15:05 Mostly Cloudy 32 0 24 -4.4 73 73 NE 8 13 30.36 1028 10 16 0.00 0.00
3:52 pm 15:52 Partly Cloudy 34 1 25 -4 70 70 N 10 17 30.33 1027 10 16 0.00 0.00
3:54 pm 15:54 Partly Cloudy 33 0.6 25 -3.9 72 72 NE 9 15 30.32 1027 10 16 0.00 0.00
4:54 pm 16:54 Sunny 30 -1.1 23 -5 75 75 NNE 13 20 30.31 1027 10 16 0.00 0.00
5:54 pm 17:54 Partly Cloudy 28 -2.2 22 -5.6 78 78 NE 12 19 30.32 1027 9 14 0.00 0.00
6:54 pm 18:54 Partly Cloudy 25 -3.9 21 -6.1 85 85 NNE 12 19 30.31 1026 9 14 0.00 0.00
7:05 pm 19:05 Mostly Cloudy 25 -3.9 21 -6.1 85 85 NNE 12 19 30.36 1028 9 14 0.00 0.00
7:54 pm 19:54 Cloudy 26 -3.3 21 -6.1 81 81 ENE 13 20 30.32 1027 8 13 0.00 0.00
8:54 pm 20:54 Cloudy 24 -4.4 20 -6.7 84 84 ENE 9 15 30.32 1027 9 14 0.00 0.00
9:43 pm 21:43 Cloudy 24 -4.4 20 -6.7 84 84 NE 10 17 30.36 1028 9 14 0.00 0.00
9:54 pm 21:54 Cloudy 24 -4.4 20 -6.7 84 84 NE 12 19 30.32 1027 9 14 0.00 0.00
10:54 pm 22:54 Cloudy 24 -4.4 20 -6.7 84 84 NE 13 20 30.29 1026 8 13 0.00 0.00
11:54 pm 23:54 Cloudy with Mist and Fog 24 -4.4 21 -6.1 88 88 ENE 5 7 30.27 1025 4 6 0.00 0.00

Powered by AerisWeather